Location: �terpigny
(49.8910°N, 2.9249°E)
Time: 03:56:07
(UTC+00:00)

YAOGAN 1 - Pass Details

Date: 24 October 2021
Orbit: 618 x 620 km, 97.9° (Epoch: 05 December)

Event Time Altitude Azimuth Distance (km) Brightness Sun altitude
Rises 17:08:39 0° 122° (ESE) 2,892 5.6 -5.4°
Reaches altitude 10° 17:11:22 10° 104° (ESE) 1,990 4.6 -5.8°
Maximum altitude 17:14:21 19° 60° (ENE) 1,510 4.0 -6.3°
Drops below altitude 10° 17:17:21 10° 16° (NNE) 2,000 4.9 -6.8°
Sets 17:20:04 0° 359° (N) 2,912 5.9 -7.2°
